FW8483 Weather Reports


Display with metric or nautical units.
time (UTC)temp
F
wind
direction
speed
MPH
gust
MPH
rain 1hr
in
rain 24hr
in
rain mn
in
humidity
%
barometer
mb
20260906132012 79 244 2.0 3.0 0.00 0.27 0.00 92 1013.6
20260906131530 79 275 2.0 3.0 0.00 0.27 0.00 93 1013.6
20260906131015 79 262 2.0 3.0 0.00 0.27 0.00 94 1013.6
20260906130516 79 286 0.0 3.0 0.00 0.27 0.00 96 1013.5
20260906130034 78 338 1.0 4.0 0.00 0.27 0.00 96 1013.5
20260906125516 78 268 1.0 4.0 0.00 0.27 0.00 97 1013.5
20260906125015 78 309 0.0 0.0 0.00 0.27 0.00 97 1013.4
20260906124538 78 237 0.0 0.0 0.00 0.27 0.00 98 1013.4
20260906124007 77 237 0.0 0.0 0.00 0.27 0.00 98 1013.3
20260906123510 77 237 0.0 0.0 0.00 0.27 0.00 98 1013.3
20260906123031 76 237 0.0 0.0 0.00 0.27 0.00 98 1013.3
20260906122511 76 237 0.0 0.0 0.00 0.27 0.00 98 1013.2
20260906122012 75 76 0.0 0.0 0.00 0.27 0.00 98 1013.2
20260906121532 75 76 0.0 0.0 0.00 0.27 0.00 98 1013.1
20260906121014 74 76 0.0 0.0 0.00 0.27 0.00 98 1013.1
20260906120515 74 76 0.0 0.0 0.00 0.27 0.00 98 1013.0
20260906120031 74 76 0.0 0.0 0.00 0.27 0.00 98 1013.0
20260906115514 74 76 0.0 0.0 0.00 0.27 0.00 98 1013.0
20260906115002 74 76 0.0 0.0 0.00 0.27 0.00 97 1013.0
20260906114503 74 76 0.0 0.0 0.00 0.27 0.00 97 1013.0
20260906114003 74 76 0.0 0.0 0.00 0.27 0.00 97 1012.9
20260906113503 74 76 0.0 0.0 0.00 0.27 0.00 98 1012.9
20260906113004 73 76 0.0 0.0 0.00 0.27 0.00 98 1012.9
20260906112503 73 76 0.0 0.0 0.00 0.27 0.00 97 1012.8
20260906112003 73 76 0.0 0.0 0.00 0.27 0.00 97 1012.7
20260906111507 73 76 0.0 0.0 0.00 0.27 0.00 97 1012.7
20260906111003 73 76 0.0 0.0 0.00 0.27 0.00 97 1012.8
20260906110503 73 76 0.0 0.0 0.00 0.27 0.00 97 1012.7
20260906110005 73 76 0.0 0.0 0.00 0.27 0.00 97 1012.7
20260906105504 73 76 0.0 0.0 0.00 0.27 0.00 97 1012.7
20260906105005 73 76 0.0 0.0 0.00 0.27 0.00 97 1012.6
20260906104506 73 76 0.0 0.0 0.00 0.27 0.00 97 1012.7
20260906104002 73 76 0.0 0.0 0.00 0.27 0.00 97 1012.7
20260906103502 74 76 0.0 0.0 0.00 0.27 0.00 97 1012.5
20260906103006 74 76 0.0 0.0 0.00 0.27 0.00 97 1012.4
20260906102504 73 76 0.0 0.0 0.00 0.27 0.00 97 1012.4
20260906102003 73 76 0.0 0.0 0.00 0.27 0.00 97 1012.3
20260906101506 74 76 0.0 0.0 0.00 0.27 0.00 97 1012.3
20260906101003 74 76 0.0 0.0 0.00 0.27 0.00 98 1012.4
20260906100503 73 76 0.0 0.0 0.00 0.27 0.00 97 1012.4
20260906100014 73 76 0.0 0.0 0.00 0.27 0.00 97 1012.3
20260906095502 73 76 0.0 0.0 0.00 0.27 0.00 97 1012.2
20260906095003 73 76 0.0 0.0 0.00 0.27 0.00 97 1012.2
20260906094505 73 76 0.0 0.0 0.00 0.27 0.00 97 1012.1
20260906094003 74 76 0.0 0.0 0.00 0.27 0.00 97 1012.1
20260906093505 74 76 0.0 0.0 0.00 0.27 0.00 97 1012.1
20260906093008 74 76 0.0 0.0 0.00 0.27 0.00 97 1012.0
20260906092502 74 76 0.0 0.0 0.00 0.27 0.00 97 1012.0
20260906092004 74 76 0.0 0.0 0.00 0.27 0.00 97 1012.0
20260906091507 74 76 0.0 0.0 0.00 0.27 0.00 97 1012.0
20260906091003 74 76 0.0 0.0 0.00 0.27 0.00 97 1012.0
20260906090504 74 76 0.0 0.0 0.00 0.27 0.00 97 1011.9
20260906090006 74 76 0.0 0.0 0.00 0.27 0.00 97 1011.8
20260906085505 74 76 0.0 0.0 0.00 0.27 0.00 97 1011.8
20260906085003 74 76 0.0 0.0 0.00 0.27 0.00 97 1011.8
20260906084508 75 76 0.0 0.0 0.00 0.27 0.00 97 1011.8
20260906084005 75 76 0.0 0.0 0.00 0.27 0.00 97 1011.7
20260906083503 75 76 0.0 0.0 0.00 0.27 0.00 97 1011.7
20260906083006 75 76 0.0 0.0 0.00 0.27 0.00 97 1011.7
20260906082502 75 76 0.0 0.0 0.00 0.27 0.00 97 1011.6
20260906082002 75 76 0.0 0.0 0.00 0.27 0.00 97 1011.6
20260906081506 75 76 0.0 0.0 0.00 0.27 0.00 97 1011.6
20260906081003 74 76 0.0 0.0 0.00 0.27 0.00 97 1011.6
20260906080504 74 76 0.0 0.0 0.00 0.27 0.00 97 1011.5
20260906080008 74 76 0.0 0.0 0.00 0.27 0.00 97 1011.5
20260906075503 74 76 0.0 0.0 0.00 0.27 0.00 97 1011.6
20260906075004 74 76 0.0 0.0 0.00 0.27 0.00 97 1011.7
20260906074507 74 76 0.0 0.0 0.00 0.27 0.00 97 1011.6
20260906074003 74 76 0.0 0.0 0.00 0.27 0.00 97 1011.7
20260906073503 74 76 0.0 0.0 0.00 0.27 0.00 97 1011.8
20260906073008 74 76 0.0 0.0 0.00 0.27 0.00 97 1011.8
20260906072504 74 77 0.0 0.0 0.00 0.27 0.00 96 1011.8
20260906072003 75 287 0.0 0.0 0.00 0.27 0.00 96 1011.7
20260906071507 75 287 0.0 0.0 0.00 0.27 0.00 97 1011.6
20260906071002 75 287 0.0 0.0 0.00 0.27 0.00 97 1011.5
20260906070502 75 287 0.0 0.0 0.00 0.27 0.00 97 1011.5
20260906070010 75 287 0.0 0.0 0.00 0.27 0.00 97 1011.6
20260906065503 75 287 0.0 0.0 0.00 0.27 0.00 97 1011.8
20260906065003 75 287 0.0 0.0 0.00 0.27 0.00 97 1011.8
20260906064510 75 287 0.0 0.0 0.00 0.27 0.00 97 1011.8
20260906064004 76 287 0.0 0.0 0.00 0.27 0.00 97 1011.9
20260906063506 76 287 0.0 0.0 0.00 0.27 0.00 97 1011.9
20260906063011 75 287 0.0 0.0 0.00 0.27 0.00 97 1012.0
20260906062502 75 287 0.0 0.0 0.00 0.27 0.00 97 1012.0
20260906062003 75 287 0.0 0.0 0.00 0.27 0.00 97 1012.1
20260906061519 75 287 0.0 0.0 0.00 0.27 0.00 97 1012.0
20260906061004 75 287 0.0 0.0 0.00 0.27 0.00 97 1012.0
20260906060504 75 287 0.0 0.0 0.00 0.27 0.00 96 1012.1
20260906060009 75 287 0.0 0.0 0.00 0.27 0.00 97 1012.2
20260906055506 75 287 0.0 0.0 0.00 0.27 0.00 97 1012.2
20260906055004 76 287 0.0 0.0 0.00 0.27 0.00 97 1012.2
20260906054524 76 287 0.0 0.0 0.00 0.27 0.00 97 1012.2
20260906054003 75 287 0.0 0.0 0.00 0.27 0.00 97 1012.2
20260906053502 75 287 0.0 0.0 0.00 0.27 0.00 96 1012.3
20260906053008 75 287 0.0 0.0 0.00 0.27 0.00 96 1012.3
20260906052504 76 287 0.0 0.0 0.00 0.27 0.00 97 1012.4
20260906052010 76 287 0.0 0.0 0.00 0.27 0.00 97 1012.3
20260906051510 76 287 0.0 0.0 0.00 0.27 0.00 96 1012.1
20260906051007 76 287 0.0 0.0 0.00 0.27 0.00 96 1012.2
20260906050507 76 287 0.0 0.0 0.00 0.27 0.00 97 1012.2
20260906050010 76 287 0.0 0.0 0.00 0.27 0.00 97 1012.2
20260906045502 77 287 0.0 0.0 0.00 0.27 0.27 97 1012.2
20260906045003 77 287 0.0 0.0 0.00 0.28 0.27 97 1012.2
20260906044514 77 287 0.0 0.0 0.00 0.28 0.27 97 1012.2
20260906044003 77 287 0.0 0.0 0.00 0.28 0.27 97 1012.3
20260906043502 76 287 0.0 0.0 0.00 0.28 0.27 97 1012.3
20260906043021 76 287 0.0 0.0 0.00 0.28 0.27 97 1012.3
20260906042504 76 287 0.0 0.0 0.00 0.28 0.27 96 1012.5
20260906042004 76 287 0.0 0.0 0.00 0.28 0.27 96 1012.6
20260906041514 76 287 0.0 0.0 0.00 0.28 0.27 96 1012.5
20260906041007 76 287 0.0 0.0 0.00 0.28 0.27 96 1012.6
20260906040507 76 287 0.0 0.0 0.00 0.28 0.27 96 1012.7
20260906040013 76 287 0.0 0.0 0.00 0.28 0.27 96 1012.7
20260906035503 76 287 0.0 0.0 0.00 0.28 0.27 97 1012.8
20260906035003 76 287 0.0 0.0 0.00 0.28 0.27 96 1012.9
20260906034514 76 287 0.0 0.0 0.00 0.28 0.27 96 1013.0
20260906034002 76 287 0.0 0.0 0.00 0.28 0.27 96 1012.9
20260906033502 76 287 0.0 0.0 0.00 0.28 0.27 96 1012.9
20260906033007 76 287 0.0 0.0 0.00 0.28 0.27 96 1013.0
20260906032503 77 287 0.0 0.0 0.00 0.28 0.27 96 1013.1
20260906032004 77 287 0.0 0.0 0.00 0.28 0.27 96 1013.1
20260906031512 77 287 0.0 0.0 0.00 0.28 0.27 96 1013.1
20260906031004 77 287 0.0 0.0 0.00 0.28 0.27 96 1013.1
20260906030503 77 287 0.0 0.0 0.00 0.28 0.27 96 1013.1
20260906030015 77 287 0.0 0.0 0.00 0.28 0.27 96 1013.1
20260906025506 77 287 0.0 0.0 0.00 0.28 0.27 96 1013.1
20260906025008 77 287 0.0 0.0 0.00 0.28 0.27 96 1013.2
20260906024514 77 287 0.0 0.0 0.00 0.28 0.27 96 1013.2
20260906024007 77 287 0.0 0.0 0.00 0.28 0.27 96 1013.1
20260906023506 78 287 0.0 0.0 0.00 0.28 0.27 96 1013.2
20260906023015 77 287 0.0 0.0 0.00 0.28 0.27 96 1013.2
20260906022503 77 287 0.0 0.0 0.00 0.28 0.27 95 1013.0
20260906022003 78 287 0.0 0.0 0.00 0.28 0.27 96 1012.9
20260906021519 78 287 0.0 0.0 0.00 0.28 0.27 96 1012.8
20260906021004 78 287 0.0 0.0 0.00 0.28 0.27 96 1012.7
20260906020505 78 287 0.0 0.0 0.00 0.28 0.27 96 1012.6
20260906020020 78 287 0.0 0.0 0.00 0.28 0.27 95 1012.5
20260906015507 78 287 0.0 0.0 0.00 0.28 0.27 95 1012.3
20260906015007 78 287 0.0 0.0 0.00 0.28 0.27 95 1012.3
20260906014519 78 287 0.0 0.0 0.00 0.28 0.27 95 1012.3
20260906014008 78 287 0.0 0.0 0.00 0.28 0.27 95 1012.2
20260906013508 78 287 0.0 0.0 0.00 0.28 0.27 95 1012.2
20260906013032 78 287 0.0 0.0 0.00 0.28 0.27 95 1012.1
20260906012506 78 287 0.0 0.0 0.00 0.28 0.27 95 1012.0
20260906012003 78 287 0.0 0.0 0.00 0.28 0.27 94 1011.9
20260906011508 78 287 0.0 0.0 0.00 0.28 0.27 94 1011.8
20260906011002 78 287 0.0 0.0 0.00 0.28 0.27 94 1011.7
20260906010505 79 287 0.0 0.0 0.00 0.28 0.27 94 1011.7
20260906010016 79 287 0.0 0.0 0.00 0.28 0.27 94 1011.6
20260906005507 79 287 0.0 0.0 0.00 0.28 0.27 94 1011.5
20260906005009 79 287 0.0 0.0 0.00 0.28 0.27 94 1011.4
20260906004517 79 287 0.0 0.0 0.00 0.28 0.27 94 1011.4
20260906004006 79 287 0.0 1.0 0.00 0.28 0.27 94 1011.5
20260906003508 79 240 0.0 1.0 0.00 0.28 0.27 94 1011.5
20260906003022 79 232 0.0 1.0 0.00 0.28 0.27 94 1011.5
20260906002506 79 232 0.0 0.0 0.00 0.28 0.27 94 1011.7
20260906002011 80 232 0.0 0.0 0.00 0.28 0.27 93 1011.8
20260906001520 80 232 0.0 0.0 0.00 0.28 0.27 93 1011.8
20260906001003 80 232 0.0 2.0 0.00 0.28 0.27 93 1011.9
20260906000503 80 232 0.0 2.0 0.00 0.28 0.27 92 1011.8
20260906000023 80 232 0.0 0.0 0.00 0.28 0.27 92 1011.8
20260905235505 80 156 0.0 0.0 0.00 0.28 0.27 92 1011.9
20260905235007 80 156 0.0 0.0 0.00 0.28 0.27 92 1011.9
20260905234517 80 156 0.0 0.0 0.00 0.28 0.27 92 1011.9
20260905234008 80 156 0.0 0.0 0.00 0.28 0.27 92 1011.9
20260905233510 81 156 0.0 0.0 0.00 0.28 0.27 91 1011.9
20260905233022 81 156 0.0 0.0 0.00 0.28 0.27 91 1011.8
20260905232509 81 156 0.0 0.0 0.00 0.28 0.27 90 1011.9
20260905232008 81 156 0.0 0.0 0.00 0.28 0.27 91 1011.9
20260905231519 81 156 0.0 0.0 0.00 0.28 0.27 91 1012.0
20260905231009 81 156 0.0 0.0 0.00 0.28 0.27 91 1011.9
20260905230511 81 156 0.0 0.0 0.00 0.28 0.27 89 1011.9
20260905230019 81 156 0.0 0.0 0.00 0.28 0.27 90 1012.0
20260905225503 81 320 0.0 0.0 0.00 0.28 0.27 89 1011.9
20260905225003 81 318 0.0 0.0 0.00 0.28 0.27 89 1011.8
20260905224519 81 338 0.0 0.0 0.00 0.28 0.27 89 1011.8
20260905224005 81 352 0.0 0.0 0.00 0.28 0.27 88 1011.9
20260905223512 81 352 0.0 0.0 0.00 0.28 0.27 88 1012.0
20260905223021 81 352 0.0 2.0 0.00 0.28 0.27 88 1011.9
20260905222510 81 320 0.0 2.0 0.00 0.28 0.27 87 1011.9
20260905222011 82 338 1.0 2.0 0.00 0.28 0.27 86 1012.0
20260905221520 82 336 0.0 2.0 0.00 0.29 0.27 86 1012.0
20260905221010 82 336 0.0 4.0 0.00 0.29 0.27 85 1012.1
20260905220511 83 338 1.0 4.0 0.00 0.30 0.27 83 1012.0
20260905220022 83 347 2.0 4.0 0.00 0.31 0.27 81 1012.0
20260905215512 84 342 2.0 4.0 0.00 0.32 0.27 80 1012.1
20260905215006 85 28 1.0 4.0 0.00 0.33 0.27 80 1012.1
20260905214513 85 47 0.0 0.0 0.00 0.34 0.27 83 1012.3
20260905214007 85 236 0.0 0.0 0.00 0.35 0.27 81 1012.4
20260905213509 84 236 0.0 0.0 0.00 0.36 0.27 80 1012.3
20260905213025 84 236 0.0 0.0 0.00 0.37 0.27 81 1012.3
20260905212510 84 144 0.0 3.0 0.00 0.38 0.27 81 1012.3
20260905212009 84 9 0.0 3.0 0.00 0.39 0.27 80 1012.3
20260905211522 84 9 1.0 7.0 0.00 0.39 0.27 79 1012.3
20260905211011 85 344 3.0 7.0 0.00 0.40 0.27 78 1012.3
20260905210512 86 314 1.0 7.0 0.00 0.40 0.27 80 1012.3
20260905210027 86 271 1.0 7.0 0.00 0.41 0.27 78 1012.2
20260905205511 87 259 3.0 5.0 0.00 0.41 0.27 77 1012.1
20260905205011 87 307 0.0 5.0 0.00 0.41 0.27 79 1012.1
20260905204512 86 204 0.0 4.0 0.00 0.42 0.27 81 1012.2
20260905204005 85 252 1.0 4.0 0.00 0.42 0.27 82 1012.3
20260905203508 85 238 0.0 2.0 0.00 0.43 0.27 86 1012.4
20260905203025 84 209 0.0 3.0 0.00 0.44 0.27 83 1012.4
20260905202509 84 204 0.0 3.0 0.00 0.46 0.27 83 1012.4
20260905202010 84 249 0.0 7.0 0.00 0.48 0.27 83 1012.5
20260905201524 84 289 0.0 7.0 0.00 0.51 0.27 83 1012.4
20260905201011 85 233 2.0 6.0 0.00 0.55 0.27 86 1012.5
20260905200511 85 247 1.0 4.0 0.00 0.60 0.27 85 1012.4
20260905200033 85 259 0.0 7.0 0.02 0.65 0.27 86 1012.5
20260905195514 85 219 1.0 8.0 0.15 0.71 0.27 84 1012.6
20260905195013 85 161 4.0 8.0 0.26 0.78 0.27 85 1012.7
20260905194526 84 163 3.0 7.0 0.27 0.85 0.27 86 1012.6
20260905194012 83 173 3.0 7.0 0.27 0.92 0.27 88 1012.6
20260905193503 82 182 2.0 4.0 0.27 1.00 0.27 87 1012.8
20260905193014 82 165 0.0 3.0 0.27 1.09 0.27 88 1013.0
20260905192506 82 144 1.0 3.0 0.27 1.19 0.27 87 1013.1
20260905192009 82 148 1.0 3.0 0.27 1.28 0.27 90 1013.0
20260905191537 81 175 0.0 3.0 0.27 1.40 0.27 91 1013.1
20260905191011 81 195 0.0 9.0 0.27 1.49 0.27 90 1013.2
20260905190511 81 97 1.0 9.0 0.27 1.59 0.27 86 1013.2
20260905190043 83 119 5.0 10.0 0.25 1.68 0.25 85 1013.5
20260905185512 84 205 2.0 10.0 0.12 1.64 0.12 84 1013.8
20260905185012 87 248 5.0 10.0 0.01 1.61 0.01 79 1013.9
20260905184536 88 220 1.0 5.0 0.00 1.66 0.00 75 1013.7
20260905184012 88 234 0.0 4.0 0.00 1.67 0.00 73 1013.6
20260905183513 88 306 1.0 6.0 0.00 1.67 0.00 72 1013.6
20260905183031 89 323 3.0 6.0 0.00 1.67 0.00 72 1013.5
20260905182507 89 276 3.0 6.0 0.00 1.67 0.00 71 1013.3
20260905182008 89 324 0.0 4.0 0.00 1.67 0.00 72 1013.2
20260905181526 89 300 3.0 6.0 0.00 1.67 0.00 69 1013.3
20260905181011 89 276 2.0 6.0 0.00 1.67 0.00 73 1013.3
20260905180511 89 294 2.0 6.0 0.00 1.67 0.00 75 1013.5
20260905180027 88 315 3.0 6.0 0.00 1.67 0.00 74 1013.6
20260905175517 87 224 2.0 5.0 0.00 1.67 0.00 76 1013.6
20260905175019 87 26 0.0 4.0 0.00 1.67 0.00 77 1013.7
20260905174504 86 300 2.0 7.0 0.00 1.67 0.00 76 1013.8
20260905174003 87 248 3.0 7.0 0.00 1.67 0.00 76 1013.9
20260905173503 87 167 2.0 3.0 0.00 1.67 0.00 76 1013.9
20260905173030 87 171 0.0 6.0 0.00 1.67 0.00 77 1014.0
20260905172507 87 291 3.0 6.0 0.00 1.67 0.00 76 1014.1
20260905172007 86 255 0.0 4.0 0.00 1.67 0.00 78 1014.1
20260905171515 86 315 2.0 4.0 0.00 1.67 0.00 78 1014.3
20260905171009 86 336 0.0 7.0 0.00 1.67 0.00 79 1014.3
20260905170510 86 336 4.0 7.0 0.00 1.67 0.00 77 1014.5
20260905170029 86 274 0.0 5.0 0.00 1.67 0.00 77 1014.5
20260905165514 86 44 2.0 5.0 0.00 1.67 0.00 78 1014.4
20260905165013 86 76 1.0 5.0 0.00 1.67 0.00 80 1014.5
20260905164532 86 42 3.0 6.0 0.00 1.68 0.00 81 1014.6
20260905164017 85 312 3.0 7.0 0.00 1.68 0.00 80 1014.7
20260905163503 85 309 3.0 9.0 0.00 1.68 0.00 82 1014.7
20260905163009 85 352 4.0 9.0 0.00 1.68 0.00 81 1014.9
20260905162507 86 24 3.0 6.0 0.00 1.68 0.00 81 1014.9
20260905162005 86 334 2.0 5.0 0.00 1.68 0.00 81 1014.9
20260905161514 85 311 2.0 4.0 0.00 1.68 0.00 80 1014.9
20260905161008 85 80 1.0 5.0 0.00 1.68 0.00 82 1014.8
20260905160509 85 57 3.0 4.0 0.00 1.68 0.00 81 1014.9
20260905160021 84 346 1.0 4.0 0.00 1.68 0.00 83 1015.0
20260905155514 83 5 1.0 5.0 0.00 1.68 0.00 85 1015.0
20260905155011 83 86 2.0 6.0 0.00 1.68 0.00 90 1014.9
20260905154526 82 22 2.0 7.0 0.00 1.68 0.00 90 1014.9
20260905154015 83 22 3.0 7.0 0.00 1.68 0.00 89 1014.9
20260905153516 83 14 3.0 5.0 0.00 1.68 0.00 90 1014.9
20260905153037 82 45 1.0 4.0 0.00 1.68 0.00 91 1014.9
20260905152504 82 23 1.0 3.0 0.00 1.68 0.00 92 1015.1
20260905152006 81 15 0.0 4.0 0.00 1.68 0.00 93 1015.1
20260905151515 81 17 2.0 4.0 0.00 1.68 0.00 93 1015.2
20260905151007 81 360 2.0 4.0 0.00 1.68 0.00 94 1015.1
20260905150506 81 317 1.0 3.0 0.00 1.68 0.00 95 1015.1
20260905150019 80 103 0.0 2.0 0.00 1.68 0.00 97 1015.1
20260905145512 80 18 0.0 2.0 0.00 1.68 0.00 97 1015.1
20260905145010 79 18 0.0 2.0 0.00 1.68 0.00 98 1015.0
20260905144528 79 142 0.0 0.0 0.00 1.68 0.00 98 1015.0
20260905144011 79 40 0.0 0.0 0.00 1.68 0.00 98 1015.0
20260905143515 78 40 0.0 0.0 0.00 1.68 0.00 98 1014.9
20260905143032 78 40 0.0 0.0 0.00 1.68 0.00 98 1015.0
20260905142514 78 31 0.0 0.0 0.00 1.68 0.00 98 1015.0
20260905142014 78 31 0.0 0.0 0.00 1.68 0.00 98 1015.0
20260905141511 78 31 0.0 0.0 0.00 1.68 0.00 98 1015.0
20260905141006 77 78 0.0 4.0 0.00 1.68 0.00 98 1014.9
20260905140508 77 85 0.0 4.0 0.00 1.68 0.00 98 1014.9
20260905140029 77 82 1.0 4.0 0.00 1.68 0.00 98 1014.9
20260905135507 77 97 3.0 4.0 0.00 1.68 0.00 98 1014.9
20260905135012 77 105 2.0 4.0 0.00 1.68 0.00 98 1015.0
20260905134525 77 89 2.0 4.0 0.00 1.68 0.00 98 1015.0
20260905134013 76 53 1.0 4.0 0.00 1.68 0.00 98 1015.0
20260905133513 76 93 2.0 4.0 0.00 1.68 0.00 98 1014.9
20260905133030 76 73 3.0 4.0 0.00 1.68 0.00 98 1015.0
20260905132514 76 82 1.0 3.0 0.00 1.68 0.00 98 1015.0